Location: San Martino di Castrozza
(46.2667°N, 11.8000°E)
Time: 02:10:38
(UTC+00:00)

Okean 2 - Pass Details

Date: 23 April 2021
Orbit: 559 x 576 km, 82.5° (Epoch: 14 May)

Event Time Altitude Azimuth Distance (km) Brightness Sun altitude
Exits shadow 03:35:24 - 214° (SW) 2,322 6.0 -6.7°
Reaches altitude 10° 03:36:35 10° 220° (SW) 1,877 5.5 -6.5°
Maximum altitude 03:40:22 34° 286° (WNW) 964 4.2 -5.9°
Drops below altitude 10° 03:44:12 10° 352° (N) 1,897 6.3 -5.3°
Sets 03:46:34 0° 1° (N) 2,801 7.3 -4.9°
